Saint Martin Island, Netherlands Antilles

4:21 PM on March 26, 2017 (GMT +0000)
Saint Martin Island

Weather History for 78866 - April, 2013

Change the Weather History Date:

Tuesday, April 9, 2013

  Actual Average Record
Temperature  
Mean Temperature 80 °F -  
Max Temperature 86 °F 83 °F - ()
Min Temperature 75 °F 74 °F - ()
Cooling Degree Days 16    
Growing Degree Days 30 (Base 50)    
Moisture  
Dew Point 71 °F    
Average Humidity 73    
Maximum Humidity 83    
Minimum Humidity 61    
Precipitation  
Precipitation 0.20 in 0.10 in - ()
Sea Level Pressure  
Sea Level Pressure 30.03 in    
Wind  
Wind Speed 9 mph ()    
Max Wind Speed 15 mph    
Max Gust Speed 28 mph    
Visibility 6.3 miles    
Events Rain    
T = Trace of Precipitation, MM = Missing Value Source: Averaged Metar Reports

Daily Weather History Graph

Daily Weather History Graph

Search for Another Location

Airport or City:

Trip Planner

Search our weather history database for the weather conditions in past years. The results will help you decide how hot, cold, wet, or windy it might be!

Date:

Astronomy

Apr. 09, 2013 Rise Set
Actual Time 10:00 AM UTC 10:27 PM UTC
Civil Twilight 9:38 AM UTC 10:49 PM UTC
Nautical Twilight 9:12 AM UTC 11:15 PM UTC
Astronomical Twilight 8:46 AM UTC 11:41 PM UTC
Moon 9:16 AM UTC (4/9) 9:58 PM UTC (4/9)
Length of Visible Light 13h 11m
Length of Day
12h 27m
Waning Crescent, 1% of the Moon is Illuminated
Apr 9
Waning Crescent
Apr 10
New
Apr 18
First Quarter
Apr 25
Full
May 2
Last Quarter

Hourly Weather History & Observations

Time (GMT) Temp. Heat Index Dew Point Humidity Pressure Visibility Wind Dir Wind Speed Gust Speed Precip Events Conditions
12:00 AM 79 °F - 71 °F 72% 30.04 in 25 mi East 10.4 mph - -   Partly Cloudy
12:00 AM 78.8 °F - 71.6 °F 78% 30.04 in 6.2 mi ENE 10.4 mph - N/A   Scattered Clouds
1:00 AM 78.8 °F - 71.6 °F 78% 30.04 in 6.2 mi East 9.2 mph - N/A   Partly Cloudy
2:00 AM 78.8 °F - 69.8 °F 74% 30.06 in 6.2 mi East 12.7 mph - N/A   Scattered Clouds
3:00 AM 79 °F - 70 °F 68% 30.06 in 25 mi East 6.9 mph - -   Scattered Clouds
3:00 AM 78.8 °F - 69.8 °F 74% 30.06 in 6.2 mi East 6.9 mph - N/A   Partly Cloudy
4:00 AM 78.8 °F - 69.8 °F 74% 30.04 in 6.2 mi East 5.8 mph - N/A   Partly Cloudy
5:00 AM 78.8 °F - 69.8 °F 74% 30.01 in 6.2 mi East 6.9 mph - N/A   Scattered Clouds
6:00 AM 78 °F - 70 °F 71% 30.01 in 25 mi East 9.2 mph - -   Partly Cloudy
6:00 AM 78.8 °F - 69.8 °F 74% 30.01 in 6.2 mi East 9.2 mph - N/A   Scattered Clouds
7:00 AM 78.8 °F - 69.8 °F 74% 29.98 in 6.2 mi East 9.2 mph - N/A   Partly Cloudy
8:00 AM 77.0 °F - 69.8 °F 78% 29.98 in 6.2 mi East 11.5 mph - N/A   Partly Cloudy
9:00 AM 77.0 °F - 69.8 °F 78% 29.98 in 6.2 mi East 9.2 mph - N/A   Partly Cloudy
10:00 AM 77.0 °F - 68.0 °F 74% 30.01 in 6.2 mi East 6.9 mph - N/A   Partly Cloudy
11:00 AM 78.8 °F - 69.8 °F 74% 30.04 in 6.2 mi East 9.2 mph - N/A   Partly Cloudy
12:00 PM 80 °F - 70 °F 65% 30.06 in 25 mi East 8.1 mph - -   Mostly Cloudy
12:00 PM 80.6 °F 83.9 °F 69.8 °F 70% 30.04 in 6.2 mi East 8.1 mph - N/A   Mostly Cloudy
1:00 PM 80.6 °F 84.6 °F 71.6 °F 74% 30.06 in 2.8 mi East 9.2 mph - N/A Rain Rain Showers
1:19 PM 75.2 °F - 69.8 °F 83% 30.06 in 6.2 mi ESE 9.2 mph - N/A Rain Light Rain Showers
2:00 PM 77.0 °F - 71.6 °F 83% 30.09 in 4.3 mi East 11.5 mph - N/A Rain Light Rain Showers
3:00 PM 83 °F - 72 °F 63% 30.08 in 28 mi East 8.1 mph - - Rain Light Rain Showers
3:00 PM 82.4 °F 88.2 °F 73.4 °F 74% 30.06 in 6.2 mi ENE 8.1 mph - N/A   Scattered Clouds
4:00 PM 84.2 °F 88.4 °F 69.8 °F 62% 30.06 in 6.2 mi East 15.0 mph - N/A   Partly Cloudy
5:00 PM 86.0 °F 91.8 °F 71.6 °F 62% 30.04 in 6.2 mi ESE 11.5 mph - N/A   Mostly Cloudy
5:11 PM 77.0 °F - 68.0 °F 74% 30.04 in 2.8 mi ESE 12.7 mph 27.6 mph N/A Rain Rain Showers
5:35 PM 78.8 °F - 71.6 °F 78% 30.01 in 6.2 mi East 6.9 mph - N/A   Scattered Clouds
6:00 PM 81 °F - 73 °F 71% 30.01 in 25 mi SE 10.4 mph - - Rain Light Rain Showers
6:00 PM 80.6 °F 85.4 °F 73.4 °F 79% 30.01 in 6.2 mi ESE 9.2 mph - N/A   Scattered Clouds
7:00 PM 82.4 °F 87.2 °F 71.6 °F 70% 29.98 in 6.2 mi ESE 10.4 mph - N/A   Partly Cloudy
8:00 PM 82.4 °F 87.2 °F 71.6 °F 70% 29.98 in 6.2 mi East 10.4 mph - N/A   Scattered Clouds
9:00 PM 82 °F - 71 °F 61% 29.99 in 19 mi ESE 12.7 mph - -   Mostly Cloudy
9:00 PM 82.4 °F 86.3 °F 69.8 °F 66% 29.98 in 6.2 mi East 11.5 mph - N/A   Scattered Clouds
10:00 PM 80.6 °F 84.6 °F 71.6 °F 74% 29.98 in 6.2 mi East 8.1 mph - N/A   Scattered Clouds
11:00 PM 78.8 °F - 69.8 °F 74% 30.01 in 6.2 mi East 11.5 mph - N/A   Partly Cloudy